Temperature
16 16 16 15 15 14 14 14 14 13 13 13 13 13 13 13 13 13 13 13 13 12 12 12 12 11 11 10 10 10 11 12 12 11 11 12 12 12 12 12 11 11 11
16 16 15 15 15 14 14 14 14 14 14 13 13 13 13 13 13 13 13 13 13 13 12 12 12 12 11 10 10 10 10 10 10 10 10 10 11 11 11 11 11 11 11
15 15 15 15 14 14 13 13 13 13 13 13 12 12 12 12 13 13 13 13 13 13 12 12 12 12 11 10 10 10 10 10 10 10 10 10 10 10 10 10 10 10 10
14 14 14 14 13 13 13 12 12 12 12 12 12 12 12 12 12 12 12 12 12 12 12 12 12 12 12 11 10 10 10 10 11 11 11 10 10 10 10 10 10 10 10
14 13 13 13 13 12 12 12 12 12 12 12 12 11 11 11 12 12 12 12 12 12 12 12 12 12 12 11 11 10 10 10 10 10 10 10 10 10 10 10 10 10 10
13 13 13 12 12 12 12 12 12 12 11 11 11 12 12 12 12 12 12 12 12 12 12 12 12 12 12 12 12 11 10 10 10 10 10 10 10 10 10 10 10 10 10
13 13 13 13 12 12 12 12 12 12 11 11 11 11 12 12 12 13 13 13 13 13 12 12 12 12 12 13 13 13 12 11 11 10 10 10 10 10 10 10 10 10 10
13 12 12 12 12 12 12 12 11 11 11 11 10 10 10 10 12 12 12 12 13 13 12 12 12 12 12 12 12 13 13 13 12 12 11 10 10 10 10 10 10 10 10
12 12 11 11 11 11 11 11 11 10 10 10 9 10 10 10 10 11 11 12 12 12 12 12 12 12 12 12 11 12 12 12 12 12 12 12 11 10 10 10 10 10 10
11 11 11 11 11 11 11 10 10 10 9 9 9 9 9 9 9 9 10 10 11 11 11 11 11 11 11 11 11 11 12 12 12 12 12 12 11 11 10 10 10 10 10
11 11 11 11 11 10 10 10 10 10 9 9 8 8 8 8 8 7 8 8 9 9 9 10 10 10 10 10 10 10 11 11 11 12 11 11 11 10 10 10 10 10 10
11 11 11 10 9 9 8 8 8 8 8 8 8 7 7 6 6 5 5 6 6 7 8 8 9 9 9 9 9 9 9 10 10 10 10 10 10 10 10 10 10 10 10
10 10 10 9 8 8 7 7 7 7 7 6 6 6 5 5 5 4 4 5 5 6 6 7 8 8 8 9 9 9 9 9 9 9 9 9 10 10 10 10 10 10 10
9 8 8 8 7 7 6 6 6 5 5 4 4 4 4 4 4 4 4 4 4 5 5 6 6 7 7 7 8 8 8 8 9 9 9 9 9 9 10 10 10 10 10
7 7 7 6 6 6 5 5 4 4 3 3 2 2 2 3 3 3 3 3 3 3 4 4 5 5 5 5 6 6 7 7 8 9 9 9 9 9 9 9 9 9 10
6 6 6 6 5 5 5 4 4 3 2 1 1 1 1 2 2 2 2 2 2 1 2 2 3 3 3 3 4 4 5 6 7 8 8 9 9 9 9 9 9 9 9
5 5 5 5 5 4 4 3 3 2 1 0 -0 -0 0 0 0 0 0 0 1 0 0 1 1 1 2 2 3 3 3 4 5 7 8 8 8 9 9 9 9 8 9
5 5 4 4 4 4 3 3 2 1 0 -1 -1 -2 -2 -1 -1 -1 -1 -1 -1 -1 -1 -1 -1 -0 1 1 2 2 2 3 4 5 6 7 7 8 8 8 8 8 8
4 4 4 3 3 3 3 2 1 1 -0 -2 -3 -3 -3 -2 -2 -2 -2 -2 -2 -2 -2 -2 -2 -1 -1 -0 0 1 1 2 3 3 4 5 6 6 7 7 8 8 8
3 3 3 2 2 2 2 1 0 -0 -1 -3 -3 -3 -3 -4 -4 -4 -3 -3 -3 -3 -3 -3 -3 -3 -2 -2 -1 -1 -0 1 1 2 2 3 5 5 6 7 7 7 7
2 2 2 1 1 1 0 -1 -2 -2 -3 -4 -4 -4 -4 -4 -5 -5 -4 -4 -4 -4 -4 -4 -4 -4 -3 -3 -2 -1 -1 -0 0 1 1 2 4 5 5 6 6 7 7
1 1 1 0 -0 -1 -1 -2 -4 -4 -5 -5 -5 -5 -5 -5 -5 -5 -5 -5 -5 -5 -5 -5 -5 -5 -4 -3 -2 -2 -1 -1 -0 1 1 2 2 3 3 5 6 6 6
0 -0 -1 -1 -2 -2 -3 -4 -5 -6 -6 -6 -6 -6 -6 -6 -6 -6 -6 -6 -6 -5 -5 -5 -5 -5 -4 -3 -2 -2 -2 -2 -1 -1 -0 1 2 2 3 4 5 5 6
-1 -2 -2 -2 -3 -3 -4 -5 -6 -7 -7 -7 -6 -6 -6 -6 -6 -6 -6 -6 -6 -6 -6 -5 -5 -4 -4 -3 -3 -3 -3 -3 -2 -1 0 1 2 2 2 3 4 5 5
-2 -3 -3 -3 -4 -4 -5 -7 -7 -7 -7 -7 -7 -7 -7 -7 -7 -6 -6 -7 -7 -7 -6 -6 -6 -5 -5 -4 -4 -4 -4 -3 -3 -2 -1 -0 1 1 2 3 3 4 4
-4 -4 -4 -4 -5 -6 -7 -8 -8 -8 -8 -7 -7 -7 -7 -7 -7 -7 -7 -7 -8 -8 -7 -7 -7 -6 -6 -5 -5 -5 -5 -4 -4 -4 -2 -1 -0 0 1 2 2 2 3
Wind_Speed
6 4 4 5 7 8 7 6 6 7 8 8 10 9 9 11 14 16 17 22 26 27 28 29 30 30 31 32 32 31 31 31 30 30 30 30 29 29 29 28 28 28 27
5 6 6 5 6 9 9 8 9 9 9 8 10 11 11 11 13 15 17 20 25 28 29 30 31 33 33 34 34 34 34 34 33 32 32 32 32 32 31 31 30 30 30
7 5 6 7 7 10 9 8 7 6 9 9 12 12 12 11 12 13 16 17 19 24 29 31 33 34 35 35 36 36 36 36 36 36 35 35 35 34 34 34 33 32 32
10 5 7 9 7 7 5 7 7 7 10 10 11 11 11 11 13 13 13 15 16 18 23 30 33 34 36 36 37 38 38 36 35 36 37 37 37 37 37 37 36 35 35
10 6 8 8 7 5 6 8 8 7 11 12 12 12 10 11 13 14 15 15 16 18 19 24 30 33 35 37 38 39 39 37 34 33 35 36 38 39 39 39 38 38 37
8 6 7 8 7 6 7 7 10 9 10 12 13 14 13 13 12 14 16 16 15 17 18 19 19 20 28 34 37 38 39 39 37 35 34 35 36 38 40 41 40 40 39
5 4 5 7 6 6 8 9 8 10 10 8 8 10 11 12 13 14 14 14 16 17 16 16 15 15 15 27 32 35 37 38 39 38 37 37 37 37 39 41 41 41 40
8 5 5 5 6 6 8 8 8 7 7 6 5 6 7 6 9 12 12 13 15 14 15 17 17 16 13 12 17 29 32 35 36 36 37 38 38 39 40 40 41 41 40
11 9 9 8 8 7 7 8 7 8 10 8 7 7 8 8 5 6 9 12 13 13 13 14 16 17 16 13 13 19 27 33 35 35 35 36 37 38 40 41 41 40 38
9 10 8 9 8 7 8 8 8 7 8 9 7 7 10 11 12 9 5 7 10 12 13 12 13 15 16 15 16 21 26 31 35 36 36 36 36 37 38 39 40 40 38
8 10 9 10 9 8 8 9 8 8 6 7 7 8 9 10 10 12 14 9 8 8 9 11 12 13 14 15 16 20 28 34 36 37 37 36 37 37 38 38 38 39 38
7 10 10 9 9 8 9 9 9 10 8 9 8 7 8 7 9 9 14 16 13 10 10 10 10 11 11 13 17 23 27 32 36 37 38 38 37 37 38 38 38 37 37
7 11 10 10 10 10 10 9 9 10 10 10 9 8 8 8 9 10 12 14 16 13 10 9 9 10 10 10 11 18 22 28 33 37 38 39 39 37 36 38 38 37 36
6 10 11 10 11 11 12 11 9 10 9 10 11 10 9 9 9 10 10 12 15 14 11 10 7 8 8 9 13 19 16 22 26 32 37 38 37 35 34 35 36 35 33
7 9 10 10 11 12 12 12 10 12 12 10 9 10 10 10 10 9 9 9 10 16 18 17 10 9 8 10 17 16 16 21 26 29 31 32 32 33 33 33 31 31 32
9 9 10 10 11 11 12 12 11 12 13 10 10 13 12 12 11 9 8 8 8 11 15 16 15 12 12 15 18 16 17 24 27 30 30 29 28 30 31 32 32 31 30
9 10 11 12 12 12 13 13 12 13 13 13 12 14 16 15 10 9 9 9 9 9 13 16 15 14 16 17 16 14 15 16 17 25 30 30 28 27 29 29 30 30 31
9 9 10 11 12 12 12 12 13 13 13 14 14 13 14 13 11 10 10 12 11 8 9 16 18 15 15 15 17 18 15 15 15 21 27 28 27 24 25 26 28 29 29
10 10 11 11 12 12 13 11 11 12 12 11 11 13 15 14 12 11 13 13 10 10 8 12 16 15 14 13 15 16 16 14 14 15 20 22 23 24 25 24 24 26 27
10 11 11 11 12 14 13 12 15 14 13 10 9 11 13 13 14 15 14 11 11 12 10 11 13 14 14 13 12 15 16 13 14 13 18 19 20 23 24 24 23 23 24
11 11 12 13 13 13 13 18 17 17 15 13 12 11 12 20 23 19 18 16 16 14 14 15 16 16 15 13 14 14 18 16 14 11 14 13 12 11 12 16 19 21 24
11 11 12 14 14 14 23 27 23 16 14 14 16 15 16 16 20 27 29 29 26 21 19 19 18 20 21 19 17 16 17 19 18 7 8 10 6 10 10 10 17 21 23
11 12 12 13 14 17 26 28 28 20 14 14 15 16 17 18 22 15 23 28 25 31 30 22 21 21 22 21 19 20 19 21 22 14 13 17 10 13 11 13 21 22 24
10 11 13 14 14 18 26 28 29 17 13 14 15 15 16 15 17 22 20 19 18 20 25 20 18 20 19 18 18 20 21 21 20 16 13 16 10 9 8 8 17 21 20
11 11 13 13 15 17 25 28 28 14 14 15 15 14 16 15 27 32 24 22 22 20 25 30 31 29 31 30 25 18 16 16 17 15 8 7 6 4 4 5 9 14 12
11 13 14 12 13 14 23 27 28 14 15 15 14 13 20 25 30 32 23 20 21 20 22 23 22 22 20 21 25 17 14 14 15 11 6 4 3 3 3 2 3 2 8
Wind_Direction
225 221 229 241 245 244 242 245 248 250 253 255 254 249 248 249 253 252 257 259 261 262 264 262 261 260 260 257 250 247 248 249 248 246 246 246 245 244 242 242 241 240 240
224 232 243 243 242 242 243 244 246 251 255 256 259 252 251 250 252 250 250 254 256 258 260 261 259 258 258 259 257 251 247 247 248 248 247 247 247 247 246 244 243 243 242
231 234 250 254 252 249 249 253 254 255 262 258 260 257 255 252 251 251 251 251 253 255 256 257 258 256 257 257 258 258 255 250 247 246 245 245 245 245 245 245 244 244 243
237 238 253 262 258 248 243 252 256 258 263 262 264 264 259 258 256 254 254 253 252 252 254 255 256 256 256 256 256 257 258 256 252 249 247 247 245 245 244 244 243 243 243
247 242 258 268 269 255 250 256 261 251 270 273 270 270 262 257 258 257 254 252 250 250 250 253 252 251 253 255 256 257 257 257 256 254 251 250 248 247 246 246 245 244 243
254 244 260 273 278 273 268 257 264 265 268 276 281 280 273 263 258 256 254 254 251 249 249 250 252 252 250 253 255 256 257 257 257 256 255 254 252 250 249 248 247 246 245
292 263 272 281 282 275 280 278 275 278 278 276 279 282 275 261 257 258 255 255 254 252 248 248 249 248 250 250 250 252 254 255 256 256 255 254 253 252 251 250 249 248 247
23 14 355 335 323 311 308 304 295 291 288 267 261 284 287 268 247 249 251 250 252 252 251 249 249 248 246 247 247 248 249 251 252 254 255 254 252 251 250 250 249 248 248
35 30 24 15 4 360 343 331 320 309 308 298 256 269 290 290 282 252 247 249 248 248 249 248 248 248 247 246 249 251 249 251 253 254 254 255 256 254 251 249 248 248 247
25 20 13 8 1 357 351 344 345 330 322 319 312 274 279 292 298 298 251 251 257 256 255 255 253 251 249 249 248 245 247 249 254 257 257 256 255 255 254 251 248 247 246
16 15 8 3 356 349 340 335 335 332 325 318 317 314 311 308 299 302 302 298 286 274 274 269 266 262 256 252 251 249 248 252 257 260 260 259 257 255 254 252 249 247 246
4 8 360 355 347 343 337 331 327 322 318 312 311 309 310 307 310 307 303 304 301 294 290 285 281 277 269 262 257 252 250 252 258 263 265 265 262 259 256 253 250 248 246
356 358 354 348 346 340 335 331 326 320 313 313 311 309 307 300 300 300 300 303 303 300 288 277 275 281 285 282 278 269 263 258 259 263 266 267 267 264 260 257 252 249 247
342 347 345 343 340 337 336 333 327 321 319 313 311 310 311 306 300 296 295 303 306 304 299 290 283 283 295 300 297 295 291 279 269 267 266 265 263 263 263 262 258 252 249
346 343 338 339 339 337 337 334 330 326 322 316 316 314 313 311 304 296 291 295 301 306 304 303 301 294 299 303 299 300 295 290 286 281 273 264 257 255 257 261 263 259 252
343 340 342 342 341 339 339 334 332 328 327 327 328 320 315 311 306 301 300 300 295 295 297 299 305 310 310 304 295 292 291 290 289 287 283 274 261 252 251 254 258 260 259
341 344 345 343 341 340 337 332 330 331 332 328 325 320 315 313 314 320 316 312 306 299 301 304 308 310 309 307 306 301 298 296 294 287 284 278 269 258 251 251 253 255 256
340 342 342 340 337 334 329 323 324 330 325 323 325 326 327 328 324 322 315 308 300 296 303 306 305 305 304 306 306 305 303 300 296 293 291 286 279 270 260 256 254 253 251
342 342 340 335 331 328 323 318 320 320 317 315 323 328 324 319 314 311 305 300 293 303 294 294 298 300 301 302 305 303 300 298 296 296 296 294 288 281 272 266 261 256 252
336 336 334 330 328 327 323 326 327 322 317 313 316 316 316 315 312 310 308 300 305 305 295 291 294 296 296 295 296 301 302 298 297 298 296 290 281 275 274 272 267 261 256
337 330 329 328 327 327 327 328 326 322 318 317 318 313 311 315 315 316 317 317 314 310 308 307 303 301 297 298 296 296 296 296 289 286 290 286 277 271 272 269 264 259 257
330 326 324 324 326 328 326 327 327 319 317 319 319 317 314 311 313 319 316 313 312 311 310 306 302 299 296 292 292 297 301 299 295 271 267 278 274 276 272 265 265 262 260
323 323 323 323 320 319 324 326 324 323 317 315 313 313 314 315 317 306 308 313 312 309 305 299 293 289 287 289 297 301 298 294 289 286 283 280 264 267 266 266 270 268 265
319 320 320 316 313 315 322 323 322 322 313 307 306 305 306 307 310 314 315 316 310 307 303 300 293 291 293 299 300 298 295 292 286 278 262 270 264 257 255 255 265 264 258
319 317 313 310 311 314 319 321 323 317 311 306 304 305 310 311 312 320 324 318 314 311 310 309 309 308 308 306 303 301 297 297 298 296 281 266 265 249 252 257 256 248 211
311 311 309 307 305 307 313 322 324 317 313 311 310 308 313 316 318 323 324 319 316 312 311 310 310 307 302 298 299 296 297 298 300 299 286 265 259 234 267 314 316 244 174
Height
1497 1497 1496 1495 1495 1494 1493 1492 1491 1489 1488 1486 1485 1483 1482 1480 1479 1477 1475 1475 1474 1474 1473 1473 1473 1473 1474 1474 1474 1473 1472 1472 1472 1472 1473 1473 1474 1474 1474 1474 1474 1474 1473
1495 1495 1494 1493 1492 1491 1490 1489 1487 1485 1483 1481 1479 1478 1477 1475 1473 1472 1470 1468 1467 1466 1465 1465 1464 1464 1464 1465 1466 1466 1465 1465 1465 1465 1465 1465 1466 1466 1467 1466 1467 1467 1467
1493 1492 1491 1490 1489 1488 1486 1484 1482 1480 1478 1475 1473 1471 1470 1468 1466 1464 1463 1461 1459 1458 1457 1456 1454 1454 1454 1455 1456 1457 1457 1457 1456 1456 1456 1456 1456 1457 1458 1458 1458 1459 1459
1490 1489 1488 1486 1485 1483 1481 1479 1477 1474 1472 1468 1465 1463 1461 1459 1457 1455 1454 1452 1450 1449 1447 1447 1446 1445 1444 1444 1444 1445 1446 1447 1447 1447 1447 1447 1447 1447 1448 1448 1449 1449 1450
1486 1485 1484 1482 1480 1478 1475 1473 1471 1468 1465 1462 1458 1455 1452 1450 1448 1446 1444 1443 1441 1439 1437 1436 1435 1434 1433 1433 1432 1433 1433 1434 1435 1435 1436 1436 1436 1436 1437 1438 1438 1439 1439
1481 1480 1478 1477 1475 1473 1470 1468 1465 1462 1459 1456 1452 1448 1446 1444 1441 1438 1436 1434 1432 1429 1427 1425 1423 1421 1421 1420 1420 1419 1419 1420 1421 1421 1422 1424 1424 1425 1425 1426 1427 1427 1428
1477 1476 1474 1473 1471 1468 1466 1463 1459 1456 1453 1450 1446 1440 1438 1437 1434 1432 1429 1426 1423 1421 1419 1417 1415 1413 1411 1410 1409 1408 1406 1406 1406 1406 1407 1408 1409 1410 1412 1413 1414 1415 1416
1475 1473 1471 1469 1466 1464 1461 1458 1454 1450 1447 1446 1442 1436 1430 1426 1424 1423 1420 1418 1415 1413 1410 1408 1406 1404 1402 1401 1399 1398 1397 1396 1395 1393 1393 1393 1394 1395 1396 1398 1400 1401 1403
1473 1471 1469 1466 1464 1460 1457 1454 1451 1447 1443 1441 1439 1435 1428 1418 1415 1412 1411 1408 1405 1402 1401 1399 1397 1395 1393 1391 1389 1388 1387 1386 1385 1383 1382 1381 1380 1381 1381 1382 1384 1386 1389
1472 1470 1467 1464 1461 1458 1455 1452 1448 1444 1439 1435 1433 1430 1427 1420 1413 1402 1399 1399 1397 1394 1391 1389 1387 1385 1383 1381 1378 1377 1376 1375 1374 1372 1371 1369 1368 1367 1368 1369 1370 1372 1374
1470 1468 1465 1462 1459 1455 1452 1448 1444 1440 1436 1431 1427 1423 1418 1414 1409 1403 1393 1389 1387 1386 1384 1381 1377 1374 1372 1369 1366 1364 1363 1362 1361 1360 1359 1357 1356 1355 1355 1356 1357 1359 1360
1467 1464 1461 1458 1454 1450 1447 1443 1439 1435 1431 1427 1422 1417 1413 1408 1403 1398 1390 1382 1377 1374 1374 1371 1369 1366 1363 1360 1357 1353 1351 1349 1348 1347 1347 1346 1344 1343 1343 1343 1344 1345 1346
1464 1460 1457 1453 1449 1445 1441 1437 1433 1429 1425 1421 1416 1411 1407 1403 1398 1393 1387 1378 1371 1364 1362 1360 1359 1357 1354 1351 1347 1344 1341 1337 1335 1334 1333 1332 1331 1330 1330 1330 1331 1332 1333
1461 1457 1453 1449 1445 1440 1435 1431 1426 1422 1418 1414 1409 1405 1400 1395 1392 1387 1382 1375 1366 1357 1352 1349 1347 1346 1344 1341 1337 1334 1330 1327 1323 1321 1319 1318 1317 1316 1316 1316 1317 1319 1320
1457 1453 1449 1444 1440 1435 1431 1426 1421 1417 1413 1408 1403 1398 1393 1389 1385 1380 1376 1372 1366 1355 1345 1338 1335 1333 1332 1329 1326 1323 1319 1315 1312 1308 1305 1303 1302 1301 1301 1301 1301 1304 1306
1453 1449 1444 1440 1435 1431 1426 1421 1416 1412 1407 1403 1397 1392 1387 1383 1378 1374 1369 1365 1360 1354 1343 1333 1327 1322 1319 1316 1314 1311 1307 1303 1299 1296 1293 1290 1288 1287 1287 1287 1286 1287 1290
1449 1444 1440 1436 1432 1427 1422 1417 1412 1406 1401 1396 1391 1387 1382 1377 1372 1367 1362 1357 1352 1347 1338 1328 1322 1315 1310 1306 1301 1299 1296 1292 1287 1283 1280 1277 1276 1275 1274 1273 1274 1274 1275
1446 1441 1437 1432 1428 1423 1418 1412 1406 1400 1395 1389 1384 1380 1375 1370 1365 1360 1355 1349 1344 1339 1332 1322 1312 1306 1301 1298 1293 1287 1283 1280 1275 1271 1269 1265 1263 1263 1262 1262 1262 1262 1262
1443 1438 1433 1428 1423 1418 1413 1407 1401 1395 1389 1384 1379 1374 1368 1363 1357 1351 1346 1341 1335 1330 1324 1316 1306 1299 1292 1288 1283 1277 1272 1267 1263 1260 1257 1254 1252 1251 1251 1251 1250 1250 1249
1439 1434 1430 1425 1420 1414 1409 1402 1396 1390 1384 1379 1373 1367 1361 1356 1350 1344 1338 1333 1327 1320 1313 1306 1298 1290 1284 1279 1275 1268 1260 1256 1252 1248 1245 1243 1242 1242 1241 1240 1240 1239 1239
1436 1431 1426 1421 1415 1409 1403 1397 1391 1384 1379 1372 1366 1360 1355 1349 1344 1339 1334 1326 1320 1312 1305 1297 1289 1282 1276 1271 1266 1261 1253 1246 1241 1241 1236 1232 1232 1231 1230 1230 1229 1228 1228
1432 1427 1421 1415 1409 1404 1398 1392 1386 1379 1373 1366 1359 1352 1347 1341 1336 1332 1326 1321 1315 1308 1299 1292 1283 1276 1269 1264 1258 1252 1246 1239 1230 1230 1228 1222 1222 1220 1218 1218 1218 1217 1216
1427 1421 1416 1410 1404 1398 1392 1386 1380 1374 1367 1360 1353 1346 1340 1335 1330 1323 1317 1312 1306 1300 1294 1286 1275 1268 1262 1256 1250 1244 1238 1231 1223 1219 1219 1211 1211 1208 1207 1207 1207 1206 1205
1421 1416 1410 1404 1398 1392 1385 1379 1373 1367 1360 1353 1347 1341 1335 1328 1322 1317 1309 1302 1294 1287 1281 1274 1267 1259 1253 1247 1243 1236 1228 1220 1211 1208 1207 1200 1199 1198 1198 1197 1196 1195 1194
1415 1410 1404 1399 1392 1385 1379 1373 1368 1360 1353 1346 1341 1335 1330 1323 1316 1311 1303 1294 1285 1277 1270 1264 1259 1252 1245 1240 1234 1227 1219 1212 1203 1197 1196 1193 1189 1188 1186 1185 1186 1187 1188
1410 1404 1398 1393 1386 1379 1373 1368 1363 1356 1348 1341 1334 1329 1324 1318 1311 1304 1297 1288 1278 1269 1260 1252 1246 1241 1235 1230 1225 1220 1213 1206 1199 1191 1187 1186 1181 1181 1178 1177 1179 1181 1184